Regional Weather Roundup
Issued by NWS Wakefield, VA

Home | Current Version | Previous Version | Text Only | Print | Product List | Glossary Off
Versions: 1 2 3 4 5 6 7 8 9 10 11 12 13 14 15 16 17 18 19 20 21 22 23 24 25 26 27 28 29 30 31 32 33 34 35 36 37 38 39 40 41 42 43 44 45 46 47 48 49 50

000
ASUS41 KAKQ 300815
RWRAKQ

REGIONAL WEATHER ROUNDUP
NATIONAL WEATHER SERVICE WAKEFIELD VA
400 AM EDT SAT JUL 30 2016

Note: "fair" indicates few or no clouds below 12,000 feet with no
significant weather and/or obstructions to visibility. * = Denotes
station may not report precipitation (e.g., rain,snow,etc.),
thunder or fog.

VAZ042-051-052>054-056-300900-
NORTHERN VIRGINIA

CITY           SKY/WX    TMP DP  RH WIND       PRES   REMARKS
WASH NATIONAL  FAIR      79  74  84 CALM      29.93S
DULLES         FAIR      73  70  90 E5        29.92F
FORT BELVOIR   FAIR      72  72 100 CALM      29.92S
QUANTICO       NOT AVBL
FREDERICKSBRG* FAIR      73  73 100 CALM      29.92S
STAFFORD*      FAIR      69  68  97 CALM      29.97S FOG
WARRENTON      FAIR      73  69  85 CALM      29.92S FOG
CULPEPER*      FAIR      72  72 100 CALM      29.94S FOG
MANASSAS*      FAIR      73  73 100 CALM      29.93S
LEESBURG*      FAIR      73  73 100 CALM      29.93F
WINCHESTER     FAIR      72  70  94 CALM      29.94S
FRONT ROYAL*   CLOUDY    72  70  94 CALM      29.93S
LURAY*         FAIR      72  72 100 CALM      29.96S
$$

VAZ048-049-060>072-079>083-300900-
CENTRAL AND SOUTH CENTRAL VIRGINIA

CITY           SKY/WX    TMP DP  RH WIND       PRES   REMARKS
RICHMOND       FAIR      74  72  93 CALM      29.93F
CHESTERFIELD*  FAIR      72  59  64 CALM      29.94F
PETERSBURG*    FAIR     N/A N/A N/A CALM      29.94F FOG
HANOVER        FAIR      72  70  93 CALM      29.94F FOG
TAPPAHANNOCK*  NOT AVBL
QUINTON*       FAIR      72  72 100 CALM      29.93S
CHARLOTTSVILLE FAIR      73  70  90 CALM      29.94F
GORDONSVILLE*  FAIR      71  71 100 CALM      29.93F FOG
ORANGE*          N/A     73  73 100 CALM      29.95F
LOUISA*        FAIR      73  72  94 CALM      29.93F FOG
BUMPASS*       NOT AVBL
FARMVILLE*     MOCLDY   N/A N/A N/A CALM      29.93S FOG
CREWE*         NOT AVBL
FORT PICKETT*  FAIR      71  71  98 CALM      29.94S
CHASE CITY*    PTSUNNY   73  72  94 CALM      29.94S
CLARKSVILLE*   FAIR      73  73 100 CALM      29.93F
SOUTH HILL*    FAIR      71  71  99 CALM      29.99F
LAWRENCEVILLE* FAIR      72  72 100 CALM      29.94S
EMPORIA*       FAIR      70  70 100 CALM      29.95S
$$

VAZ088>098-300900-
SOUTHEAST VIRGINIA

CITY           SKY/WX    TMP DP  RH WIND       PRES   REMARKS
NORFOLK        FAIR      77  72  84 CALM      29.93F
VIRGINIA BEACH FAIR      79  71  76 CALM      29.93F
NORFOLK NAVAL  FAIR      75  72  90 CALM      29.95S
WEST POINT*    FAIR      71  70  97 CALM      29.94F
SALUDA*        FAIR      73  73 100 CALM      29.93S
NEWPORT NEWS   FAIR      73  73 100 CALM      29.93F FOG
LANGLEY AFB    FAIR      75  74  95 VRB2      29.93F
FORT EUSTIS    FAIR      75  74  97 CALM      29.91F
WILLIAMSBURG*  FAIR      75  75 100 CALM      29.94F
HR EXEC AP*    FAIR      70  66  88 CALM      29.96S
FRANKLIN*      FAIR      72  71  96 CALM      29.94S
US460-WAKEFLD  FAIR      72  70  93 CALM      29.93F FOG
$$

VAZ020-022-025-037-045-300900-
WEST CENTRAL AND SOUTHWEST VIRGINIA

CITY           SKY/WX    TMP DP  RH WIND       PRES   REMARKS
STAUNTON*      FAIR      70  69  98 CALM      29.98F FOG
WAYNESBORO*    PTSUNNY   71  69  93 CALM      29.98S
HOT SPRINGS VA MOCLDY    66  66 100 S6        30.10F
LYNCHBURG      CLOUDY    74  72  93 CALM      29.98S
DANVILLE       FAIR      74  72  93 E3        29.94F
SOUTH BOSTON*  PTSUNNY  N/A N/A N/A W3        29.95R
MARTINSVILLE   CLOUDY    72  70  92 CALM      29.98S
ROANOKE        FAIR      72  70  93 CALM      30.00F
BLACKSBURG     FOG       69  69 100 CALM      30.06S VSB 1/2
DUBLIN*        FAIR      68  68 100 CALM      30.04F FOG
MARION*        FOG       66  65  96 W3        30.08S VSB 1/4
HILLSVILLE*    FAIR      67  67  99 CALM      30.05S FOG
RICHLANDS*     FOG       65  65 100 CALM      30.06S VSB<1/4
WISE*          FAIR      64  63  94 S3        30.06F
ABINGDON*      CLOUDY    68  68 100 CALM      30.04F FOG
$$

MDZ021>025-VAZ099-100-300900-
SOUTHERN MARYLAND AND THE DELMARVA PENINSULA

CITY           SKY/WX    TMP DP  RH WIND       PRES   REMARKS
PATUXENT RIVER NOT AVBL
BAY BRIDGE APT CLEAR     79  77  94 S5        29.92F
LEONARDTOWN    CLEAR     73  70  88 CALM      29.94F
DOVER          NOT AVBL
GEORGETOWN     CLEAR     73  71  93 CALM      29.94F FOG
EASTON         CLEAR     76  76 100 CALM      29.96F
CAMBRIDGE      CLEAR     72  72 100 CALM      29.92F
SALISBURY      NOT AVBL
OCEAN CITY     CLEAR     71  69  93 CALM      29.94F
WALLOPS ISLAND FAIR      75  73  93 CALM      29.94F
ACCOMACK*      FAIR      73  72  94 CALM      29.94F
$$

NCZ012>017-030>032-300900-
NORTH CENTRAL AND EASTERN NORTH CAROLINA

CITY           SKY/WX    TMP DP  RH WIND       PRES   REMARKS
ROANOKE RAPIDS FAIR      70  70 100 CALM      29.93F
RALEIGH        PTCLDY    75  72  90 CALM      29.93F
ELIZABETH CITY CLEAR     76  74  93 CALM      29.94S
AHOSKIE*       CLEAR     71  71  98 CALM      29.94S
EDENTON*       CLEAR    N/A N/A N/A CALM      29.94S
CURRITUCK*     CLEAR     75  75  99 CALM      29.94F
KILL DEVIL HLS CLEAR     75  75 100 CALM      29.93S
MANTEO           N/A     75  75 100 CALM      29.94S
CAPE HATTERAS  CLEAR     77  75  93 CALM      29.93F
TARBORO*       FAIR      74  73  98 CALM      29.94F
GOLDSBORO      CLEAR     75  75 100 E2        29.91F
WASHINGTON     CLEAR     76  73  92 CALM      29.93F
GREENVILLE     CLEAR     77  75  94 CALM      29.95F
NEW BERN       CLEAR     77  74  90 CALM      29.93F
WILMINGTON     MOCLDY    79  73  82 SW6       29.92F
$$

VAZ048-300900-
ELSEWHERE

CITY           SKY/WX    TMP DP  RH WIND       PRES   REMARKS
HARRISBURG PA  MOCLDY    75  69  81 NE3       29.93F
BALTIMORE      PTCLDY    74  72  93 E3        29.92S
ANNAPOLIS      CLEAR     78  73  84 CALM      29.92S
ANDREWS AFB    FAIR      74  71  92 CALM      29.92F
PHILADELPHIA   MOCLDY    75  72  90 S5        29.94F
GREENSBORO     CLOUDY    77  70  79 E6        29.94F
ROCKY MOUNT    CLEAR     74  74 100 CALM      29.93F
$$

VAZ100-300900-
MARINE

STATION/POSITION TIME  TEMP    WIND        PRES    WAVE   SWELL
                       AIR SEA DIR/SP/G            HT/PER HT/PER
                 (UTC) (F)     (DEG/KT/KT) (MB)    (FT/S) (FT/S)
BRANDYWINE LGT   0700   75     200/  7/  7   N/A
CAPE MAY NJ      0700   73 72  170/  4/  6 1013.6F
LEWES DE         0700   74 73  180/  3/  4 1013.8F
OCEAN-CITY-INLET 0700   74 76     CALM     1014.4S
WACHAPREAGUE VA  0700   77 85   40/  1/  2 1014.1F
THOMAS POINT MD  0800   82 84  210/  9/  9 1014.6F
GOOSES REEF MD   0700   82 85  210/  8/ 12 1014.6F   0
COVE POINT MD    0700   79     220/  6/  7 1014.2F
SOLOMONS ISLAND  0700   80 85  200/  6/  7   N/A
BISHOPS HEAD MD  0700   81     180/  9/  9 1014.0F
PINEY POINT MD   0700          220/  7/  8   N/A
POTOMAC MD       0700   82 84  240/  6/  8 1012.7F   1
CAMBRIDGE MD     0700   76 87  160/  1/  4 1013.0F
LEWISETTA VA     0700   78 86  250/  3/  3 1013.4F
RAPPAHANNOCK LGT 0700          150/  5/  6 1014.4F
STINGRAY PT      0700   83 86  120/  4/  8 1014.1F   1
YORK RVR RNG VA  0700   82     130/  5/  6 1013.2F
YORKTOWN VA      0700   79 85  160/  2/  3 1013.3F
JAMESTOWN VA     0700   81 89  150/  6/  8   N/A     0
DOMINION TERM VA 0700   81     190/  4/  4 1013.8F
KIPTOPEKE VA     0700      80  100/  2/  2   N/A
CHES BAY BRIDGE  0700   80 82  130/  2/  3 1013.8S
CAPE HENRY VA    0700   80     140/  3/  3   N/A
WILLOUBY STN VA  0700   81     110/  2/  4   N/A
CAPE HENRY BUOY  0712      80                N/A     2/ 5
1ST LANDING BUOY 0700   81 81  140/  4/  4 1013.7F   1/ 4
CAPE CHARLES BUO 0726      77                N/A     2/ 9
OFFSHORE WE BUOY 0721      82                N/A     2/ 5
64NM E OF VA BCH 0750   80 83   20/  4/  6 1013.4    2/ 5   2/ 5
DUCK PIER NC     0700   79 70  160/  3/  4 1013.1F
44100 DUCK FRF   0705      81                N/A     2/ 8
44056 DUCK FRF   0711      78                N/A     1/13
OREGON INLET NC  0700   78 76   10/  2/  3 1013.5F
HATTERAS NC      0700   81 83   CALM  /  1 1013.3F
DIAMOND SHLS NC  0750   83 86  290/  4/  6 1013.3    3/ 6   2/ 6
CAPE LOOKOUT NC  0800   82     260/  7/  8 1013.0F
$$



USA.gov is the U.S. government's official web portal to all federal, state and local government web resources and services.